This is the latest recevied weather packets stored in our database for station/object IZ4UFQ-10. If no packets are shown the sender has not sent any weather packets the latest 10 day(s).
| Time | Temp. | Humidity | Pressure | Rain* | Wind** | Luminosity | Snow |
|---|---|---|---|---|---|---|---|
| 1778054853 | 14.44° C | 96% | 1009.5 hPa | 1.02 mm | - | 70 W/m² | - |
| 1778054553 | 14.44° C | 96% | 1009.4 hPa | 1.27 mm | - | 63 W/m² | - |
| 1778054253 | 14.44° C | 96% | 1009.4 hPa | 1.02 mm | - | 67 W/m² | - |
| 1778053952 | 13.89° C | 96% | 1009.5 hPa | 0.76 mm | - | 62 W/m² | - |
| 1778053652 | 14.44° C | 96% | 1009.5 hPa | 1.02 mm | - | 51 W/m² | - |
| 1778053352 | 13.89° C | 96% | 1009.5 hPa | 1.27 mm | - | 74 W/m² | - |
| 1778053052 | 14.44° C | 96% | 1009.5 hPa | 1.52 mm | - | 70 W/m² | - |
| 1778052751 | 13.89° C | 96% | 1009.5 hPa | 1.78 mm | - | 102 W/m² | - |
| 1778052451 | 13.89° C | 96% | 1009.4 hPa | 1.78 mm | - | 134 W/m² | - |
| 1778052151 | 13.89° C | 96% | 1009.5 hPa | 2.03 mm | - | 109 W/m² | - |
| 1778051850 | 13.89° C | 96% | 1009.5 hPa | 2.54 mm | - | 148 W/m² | - |
| 1778051550 | 13.89° C | 96% | 1009.6 hPa | 2.79 mm | - | 130 W/m² | - |
| 1778051250 | 13.89° C | 96% | 1009.6 hPa | 3.56 mm | - | 97 W/m² | - |
| 1778050949 | 13.89° C | 96% | 1009.6 hPa | 3.81 mm | - | 79 W/m² | - |
| 1778050649 | 13.89° C | 96% | 1009.6 hPa | 4.32 mm | - | 90 W/m² | - |
| 1778050349 | 13.89° C | 96% | 1009.6 hPa | 4.57 mm | - | 86 W/m² | - |
| 1778050049 | 13.89° C | 96% | 1009.6 hPa | 4.57 mm | - | 86 W/m² | - |
| 1778049748 | 13.89° C | 96% | 1009.6 hPa | 4.83 mm | - | 69 W/m² | - |
| 1778049448 | 13.89° C | 95% | 1009.6 hPa | 5.08 mm | - | 53 W/m² | - |
| 1778049148 | 13.33° C | 95% | 1009.7 hPa | 5.08 mm | - | 62 W/m² | - |
| 1778048847 | 13.33° C | 95% | 1009.8 hPa | 5.08 mm | - | 72 W/m² | - |
| 1778048547 | 13.33° C | 95% | 1009.9 hPa | 4.83 mm | - | 23 W/m² | - |
| 1778048247 | 13.33° C | 95% | 1009.8 hPa | 4.57 mm | - | 14 W/m² | - |
| 1778047947 | 13.33° C | 95% | 1009.8 hPa | 4.32 mm | - | 11 W/m² | - |
| 1778047646 | 13.33° C | 95% | 1009.7 hPa | 3.81 mm | - | 11 W/m² | - |
* Rain latest hour (hover to see other rain measurements)
** Current wind speed in m/s (hover to see current wind gust speed)